Voltar ao catálogo

CZ-4C DEB

AtivoPO
NORAD 38294·DEBRIS·🇨🇳 China

Lançado Nov 4, 2010 de Taiyuan Satellite Launch Center

Loading…

Próximas Passagens (próximas 24 horas)

TLE

AtualizadoSource: Space-Track

Época: Sep 14, 2026, 07:45 UTC

1 38294U 10059D   26257.32306078  .00000255  00000-0  24694-3 0  9992
2 38294  98.6356  99.5628 0259251 261.1216  96.0505 13.73912298781306

Acompanhe CZ-4C DEB em tempo real com AllMySat

Download on the App Store